Date String (YYYY-MM-DD hh:mm:ss) UTC,Instrument flags,absolute air pressure of the measurement (hPa),sample flow rate (lpm),inlet stack bypass flow (lpm),air temperature of the measurement (°C),ambient temperature measured by the external sensor (°C),aerosol sample conditioner tube jacket temperature (°C),OPC LED temperature (°C),internal box temperature (°C),relative humidity of the measurement (%),span deviation,mass concentration of particles derived from Lorenz-Mie calculation of OPC scattering (μg/m³),mass concentration of particles derived from Lorenz-Mie calculation of OPC scattering (μg/m³),mass concentration of particles derived from Lorenz-Mie calculation of OPC scattering (μg/m³)
DateTimeUTC,F1_M11,P_M11,Q1_M11,Q2_M11,T1_M11,T2_M11,T3_M11,T4_M11,T5_M11,U1_M11,ZSPAN_M11,X0_M11,X2_M11,X1_M11
2023-08-02 18:00:00,SystemResetWarning,0835.5,4.99,000.00,030.1,027.5,000.0,038.3,031.1,32.3,0000.0,0006.38,0003.39,0002.92
2023-08-02 18:01:00,SystemResetWarning,0835.5,5.00,000.00,030.1,027.7,000.0,038.3,031.1,32.4,0000.0,0006.42,0003.41,0002.94
2023-08-02 18:02:00,SystemResetWarning,0835.5,5.01,000.00,030.2,028.0,000.0,038.3,031.2,32.9,0000.0,0006.48,0003.44,0002.95
2023-08-02 18:03:00,SystemResetWarning,0835.5,5.00,000.00,030.2,028.0,000.0,038.3,031.3,32.9,0000.0,0006.36,0003.43,0002.96
2023-08-02 18:04:00,SystemResetWarning,0835.5,4.98,000.00,030.2,027.0,000.0,038.2,031.1,33.7,0000.0,0006.18,0003.39,0002.94
2023-08-02 18:05:00,SystemResetWarning,0835.5,5.00,000.00,030.1,025.7,000.0,038.1,030.9,33.5,0000.0,0006.15,0003.38,0002.93
2023-08-02 18:06:00,SystemResetWarning,0835.5,5.01,000.00,030.0,025.5,000.0,038.0,030.8,32.6,0000.0,0005.78,0003.35,0002.91
2023-08-02 18:07:00,SystemResetWarning,0835.5,5.00,000.00,029.9,025.8,000.0,038.1,030.7,33.3,0000.0,0005.79,0003.36,0002.92
2023-08-02 18:08:00,SystemResetWarning,0835.5,5.00,000.00,029.8,026.2,000.0,038.1,030.7,32.9,0000.0,0006.46,0003.38,0002.92
2023-08-02 18:09:00,SystemResetWarning,0835.5,5.00,000.00,029.8,026.6,000.0,038.1,030.8,32.8,0000.0,0007.06,0003.39,0002.91
2023-08-02 18:10:00,SystemResetWarning,0835.5,5.01,000.00,029.8,027.0,000.0,038.2,030.9,32.9,0000.0,0006.94,0003.38,0002.90
2023-08-02 18:11:00,SystemResetWarning,0835.5,5.00,000.00,029.8,027.3,000.0,038.2,031.0,32.1,0000.0,0006.91,0003.36,0002.87
2023-08-02 18:12:00,SystemResetWarning,0835.5,5.00,000.00,029.9,027.6,000.0,038.2,031.1,32.3,0000.0,0006.83,0003.33,0002.85
2023-08-02 18:13:00,SystemResetWarning,0835.5,5.00,000.00,029.9,027.8,000.0,038.2,031.1,32.4,0000.0,0006.77,0003.31,0002.84
2023-08-02 18:14:00,SystemResetWarning,0835.5,4.98,000.00,029.9,027.6,000.0,038.1,031.2,31.5,0000.0,0006.75,0003.31,0002.84
2023-08-02 18:15:00,SystemResetWarning,0835.5,5.00,000.00,029.9,026.2,000.0,038.0,030.9,31.8,0000.0,0006.66,0003.30,0002.85
2023-08-02 18:16:00,SystemResetWarning,0835.5,5.01,000.00,029.8,025.3,000.0,037.9,030.7,32.9,0000.0,0006.76,0003.33,0002.86
2023-08-02 18:17:00,SystemResetWarning,0835.5,5.01,000.00,029.7,025.3,000.0,037.9,030.6,33.2,0000.0,0006.96,0003.34,0002.87
2023-08-02 18:18:00,SystemResetWarning,0835.5,5.00,000.00,029.6,025.6,000.0,037.9,030.5,33.1,0000.0,0006.94,0003.33,0002.87
2023-08-02 18:19:00,SystemResetWarning,0835.5,4.99,000.00,029.6,026.1,000.0,037.9,030.6,34.2,0000.0,0005.81,0003.34,0002.90
2023-08-02 18:20:00,SystemResetWarning,0835.5,4.98,000.00,029.5,026.5,000.0,037.9,030.7,34.8,0000.0,0005.16,0003.33,0002.92
2023-08-02 18:21:00,SystemResetWarning,0835.4,5.01,000.00,029.6,026.9,000.0,038.0,030.8,37.4,0000.0,0005.18,0003.33,0002.92
2023-08-02 18:22:00,SystemResetWarning,0835.3,5.01,000.00,029.9,027.2,000.0,038.0,031.0,37.8,0000.0,0005.16,0003.33,0002.95
2023-08-02 18:23:00,SystemResetWarning,0835.4,5.00,000.00,030.2,027.5,000.0,038.0,031.2,34.6,0000.0,0005.29,0003.34,0002.95
2023-08-02 18:24:00,SystemResetWarning,0835.4,4.98,000.00,030.5,027.8,000.0,038.0,031.3,34.1,0000.0,0005.94,0003.34,0002.95
2023-08-02 18:25:00,SystemResetWarning,0835.4,5.01,000.00,030.6,028.0,000.0,038.1,031.4,33.7,0000.0,0005.94,0003.35,0002.96
2023-08-02 18:26:00,SystemResetWarning,0835.4,5.00,000.00,030.8,027.3,000.0,038.1,031.3,33.8,0000.0,0005.96,0003.35,0002.96
2023-08-02 18:27:00,SystemResetWarning,0835.2,4.99,000.00,030.8,025.8,000.0,038.1,031.1,32.6,0000.0,0005.96,0003.33,0002.95
2023-08-02 18:28:00,SystemResetWarning,0835.3,5.01,000.00,030.8,025.3,000.0,038.0,030.9,33.2,0000.0,0005.74,0003.34,0002.97
2023-08-02 18:29:00,SystemResetWarning,0835.2,5.00,000.00,030.7,025.4,000.0,038.1,030.7,34.3,0000.0,0005.51,0003.32,0002.96
2023-08-02 18:30:00,SystemResetWarning,0835.3,5.00,000.00,030.6,025.7,000.0,038.2,030.8,36.4,0000.0,0005.46,0003.31,0002.94
2023-08-02 18:31:00,SystemResetWarning,0835.3,5.02,000.00,030.8,026.2,000.0,038.3,031.0,35.8,0000.0,0005.77,0003.30,0002.93
2023-08-02 18:32:00,SystemResetWarning,0835.2,4.97,000.00,031.1,026.6,000.0,038.4,031.2,37.1,0000.0,0007.10,0003.30,0002.92
2023-08-02 18:33:00,SystemResetWarning,0835.3,5.02,000.00,031.5,027.0,000.0,038.5,031.4,36.8,0000.0,0007.34,0003.33,0002.91
2023-08-02 18:34:00,SystemResetWarning,0835.2,4.98,000.00,031.9,027.3,000.0,038.6,031.6,35.2,0000.0,0007.34,0003.34,0002.91
2023-08-02 18:35:00,SystemResetWarning,0835.3,5.02,000.00,032.2,027.6,000.0,038.7,031.7,36.3,0000.0,0006.61,0003.33,0002.92
2023-08-02 18:36:00,SystemResetWarning,0835.2,4.98,000.00,032.5,027.8,000.0,038.9,031.8,32.9,0000.0,0006.88,0003.34,0002.91
2023-08-02 18:37:00,SystemResetWarning,0835.2,5.01,000.00,032.7,028.1,000.0,039.0,031.9,33.2,0000.0,0006.98,0003.36,0002.93
2023-08-02 18:38:00,SystemResetWarning,0835.2,5.01,000.00,032.9,027.8,000.0,039.2,031.9,32.1,0000.0,0006.92,0003.36,0002.94
2023-08-02 18:39:00,SystemResetWarning,0835.3,4.98,000.00,033.0,026.5,000.0,039.2,031.7,31.4,0000.0,0006.91,0003.33,0002.92
2023-08-02 18:40:00,SystemResetWarning,0835.3,5.00,000.00,033.0,025.6,000.0,039.3,031.5,31.1,0000.0,0007.04,0003.33,0002.90
2023-08-02 18:41:00,SystemResetWarning,0835.3,5.02,000.00,032.9,025.6,000.0,039.4,031.3,33.7,0000.0,0007.11,0003.33,0002.89
2023-08-02 18:42:00,SystemResetWarning,0835.2,5.00,000.00,032.7,026.0,000.0,039.5,031.3,33.4,0000.0,0007.06,0003.34,0002.89
2023-08-02 18:43:00,SystemResetWarning,0835.2,5.00,000.00,032.6,026.4,000.0,039.6,031.4,33.6,0000.0,0005.65,0003.36,0002.88
2023-08-02 18:44:00,SystemResetWarning,0835.1,5.01,000.00,032.5,026.8,000.0,039.7,031.4,33.1,0000.0,0005.38,0003.34,0002.87
2023-08-02 18:45:00,SystemResetWarning,0835.2,4.99,000.00,032.5,027.2,000.0,039.8,031.5,32.0,0000.0,0005.57,0003.34,0002.87
2023-08-02 18:46:00,SystemResetWarning,0835.1,4.99,000.00,032.4,027.5,000.0,039.9,031.6,31.7,0000.0,0005.73,0003.34,0002.88
2023-08-02 18:47:00,SystemResetWarning,0835.1,5.00,000.00,032.4,027.8,000.0,039.9,031.7,31.1,0000.0,0005.54,0003.33,0002.87
2023-08-02 18:48:00,SystemResetWarning,0835.1,5.01,000.00,032.4,028.0,000.0,039.9,031.8,31.4,0000.0,0005.55,0003.34,0002.86
2023-08-02 18:49:00,SystemResetWarning,0835.1,5.00,000.00,032.4,027.4,000.0,039.9,031.8,31.1,0000.0,0005.72,0003.37,0002.86
2023-08-02 18:50:00,SystemResetWarning,0835.1,5.00,000.00,032.3,026.0,000.0,039.7,031.5,31.6,0000.0,0005.88,0003.42,0002.87
2023-08-02 18:51:00,SystemResetWarning,0835.1,5.01,000.00,032.2,025.5,000.0,039.6,031.4,30.9,0000.0,0005.93,0003.41,0002.87
2023-08-02 18:52:00,SystemResetWarning,0835.1,5.02,000.00,032.0,025.7,000.0,039.7,031.2,30.4,0000.0,0006.01,0003.41,0002.86
2023-08-02 18:53:00,SystemResetWarning,0835.1,4.99,000.00,031.9,026.1,000.0,039.7,031.2,30.7,0000.0,0006.21,0003.42,0002.84
2023-08-02 18:54:00,SystemResetWarning,0835.1,4.99,000.00,031.8,026.5,000.0,039.7,031.3,31.1,0000.0,0006.56,0003.40,0002.84
2023-08-02 18:55:00,SystemResetWarning,0835.1,5.00,000.00,031.7,026.9,000.0,039.7,031.4,32.0,0000.0,0006.58,0003.41,0002.83
2023-08-02 18:56:00,SystemResetWarning,0835.1,5.01,000.00,031.7,027.3,000.0,039.7,031.5,32.3,0000.0,0006.40,0003.39,0002.82
2023-08-02 18:57:00,SystemResetWarning,0835.1,4.99,000.00,031.6,027.6,000.0,039.7,031.6,31.9,0000.0,0006.14,0003.38,0002.81
2023-08-02 18:58:00,SystemResetWarning,0835.1,5.00,000.00,031.6,027.9,000.0,039.7,031.6,32.1,0000.0,0006.06,0003.37,0002.82
2023-08-02 18:59:00,SystemResetWarning,0835.1,4.99,000.00,031.6,027.4,000.0,039.6,031.6,32.0,0000.0,0006.13,0003.39,0002.83
